Location: Newark
(39.9333°N, 8.7667°E)
Time: 18:36:36
(UTC+00:00)

N. Korean satellite - Visible Passes

Search period start: 14 December 2019 00:00
Search period end: 24 December 2019 00:00
Orbit: 455 x 507 km, 97.2° (Epoch: 13 December)

Date Brightness Start Highest point End Pass type
(mag) Time Alt. Az. Time Alt. Az. Time Alt. Az.
14 Dec 7.8 04:55:22 10° NNE 04:58:42 41° E 05:01:58 10° S visible
14 Dec 8.7 17:03:06 10° SSW 17:06:26 31° W 17:09:45 10° NNW visible
15 Dec 9.3 04:30:35 10° NE 04:33:08 19° E 04:35:40 10° SE visible
15 Dec 7.7 06:03:44 10° NNW 06:06:28 21° WNW 06:09:08 10° WSW visible
15 Dec 7.0 16:37:17 10° S 16:40:57 70° W 16:44:37 10° NNW visible
16 Dec 6.7 05:37:48 10° N 05:41:09 45° WNW 05:44:27 10° SSW visible
17 Dec 6.6 05:12:17 10° NNE 05:15:45 75° E 05:19:10 10° S visible
17 Dec 9.6 17:20:52 10° SW 17:23:35 19° W 17:26:17 10° NW visible
18 Dec 8.4 04:47:07 10° NNE 04:50:15 31° E 04:53:21 10° SSE visible
18 Dec 8.2 16:54:33 10° S 16:58:02 40° W 17:01:29 10° NNW visible
19 Dec 9.7 04:22:37 10° NE 04:24:40 15° E 04:26:42 10° SE visible
19 Dec 7.4 05:55:08 10° NNW 05:58:05 27° WNW 06:01:01 10° SW visible
19 Dec 6.6 16:28:54 10° SSE 16:32:34 90° E 16:36:13 10° NNW visible
20 Dec 6.4 05:29:20 10° N 05:32:45 60° WNW 05:36:08 10° SSW visible
20 Dec 10.1 17:39:22 10° WSW 17:40:45 12° W 17:42:08 10° WNW visible
21 Dec 7.1 05:03:55 10° NNE 05:07:19 56° E 05:10:40 10° S visible
21 Dec 9.2 17:12:08 10° SSW 17:15:08 24° W 17:18:08 10° NW visible
22 Dec 8.8 04:38:54 10° NE 04:41:47 24° E 04:44:38 10° SSE visible
22 Dec 7.6 16:46:04 10° S 16:49:37 51° W 16:53:09 10° NNW visible
23 Dec 9.9 04:14:53 10° ENE 04:16:10 12° E 04:17:27 10° ESE visible
23 Dec 7.1 05:46:33 10° N 05:49:42 34° WNW 05:52:49 10° SW visible
